Météo par heure à Jurowce

Ce jour, 16 Juin, Mercredi

Heure Température Précipitation Vent Pression Humidité
00:00 +13°C° 0 mm 0 m/s 736 mmHg 89%
01:00 +12°C° 0 mm 0 m/s 736 mmHg 89%
02:00 +12°C° 0 mm 0 m/s 736 mmHg 89%
03:00 +12°C° 0 mm 0 m/s 736 mmHg 88%
04:00 +11°C° 0 mm 0 m/s 736 mmHg 88%
05:00 +13°C° 0 mm 0 m/s 736 mmHg 81%
06:00 +18°C° 0 mm 1 m/s 736 mmHg 75%
07:00 +20°C° 0 mm 1 m/s 737 mmHg 69%
08:00 +20°C° 0 mm 2 m/s 737 mmHg 66%
09:00 +21°C° 0 mm 2 m/s 737 mmHg 63%
10:00 +24°C° 0 mm 3 m/s 737 mmHg 60%
11:00 +24°C° 0.1 mm 3 m/s 737 mmHg 58%
12:00 +25°C° 0.1 mm 3 m/s 737 mmHg 57%
13:00 +25°C° 0 mm 3 m/s 737 mmHg 56%
14:00 +25°C° 0.1 mm 3 m/s 737 mmHg 57%
15:00 +25°C° 0.1 mm 3 m/s 737 mmHg 58%
16:00 +25°C° 0.1 mm 2 m/s 737 mmHg 59%
17:00 +23°C° 0.1 mm 2 m/s 737 mmHg 67%
18:00 +21°C° 0.1 mm 2 m/s 737 mmHg 75%
19:00 +19°C° 0.1 mm 2 m/s 737 mmHg 83%
20:00 +19°C° 0 mm 1 m/s 737 mmHg 86%
21:00 +18°C° 0 mm 1 m/s 737 mmHg 89%
22:00 +16°C° 0 mm 1 m/s 738 mmHg 92%
23:00 +16°C° 0 mm 1 m/s 738 mmHg 93%

Demain, 17 Juin, Jeudi

Heure Température Précipitation Vent Pression Humidité
00:00 +15°C° 0 mm 1 m/s 738 mmHg 93%
01:00 +14°C° 0 mm 0 m/s 738 mmHg 93%
02:00 +15°C° 0 mm 1 m/s 738 mmHg 94%
03:00 +15°C° 0 mm 1 m/s 738 mmHg 94%
04:00 +14°C° 0 mm 1 m/s 738 mmHg 95%
05:00 +16°C° 0 mm 1 m/s 738 mmHg 89%
06:00 +19°C° 0 mm 1 m/s 738 mmHg 82%
07:00 +20°C° 0 mm 2 m/s 738 mmHg 76%
08:00 +21°C° 0 mm 2 m/s 739 mmHg 69%
09:00 +24°C° 0 mm 3 m/s 739 mmHg 62%
10:00 +25°C° 0 mm 3 m/s 739 mmHg 55%
11:00 +26°C° 0 mm 3 m/s 739 mmHg 53%
12:00 +26°C° 0 mm 3 m/s 739 mmHg 50%
13:00 +27°C° 0 mm 4 m/s 738 mmHg 47%
14:00 +26°C° 0 mm 4 m/s 738 mmHg 50%
15:00 +26°C° 0 mm 4 m/s 738 mmHg 52%
16:00 +26°C° 0 mm 4 m/s 738 mmHg 55%
17:00 +24°C° 0 mm 3 m/s 738 mmHg 64%
18:00 +21°C° 0 mm 3 m/s 738 mmHg 73%
19:00 +20°C° 0 mm 2 m/s 738 mmHg 82%
20:00 +19°C° 0 mm 2 m/s 739 mmHg 86%
21:00 +18°C° 0 mm 2 m/s 739 mmHg 90%
22:00 +18°C° 0 mm 1 m/s 739 mmHg 94%
23:00 +18°C° 0 mm 1 m/s 739 mmHg 94%

Après-demain, 18 Juin, Vendredi

Heure Température Précipitation Vent Pression Humidité
00:00 +16°C° 0 mm 1 m/s 739 mmHg 94%
01:00 +16°C° 0 mm 1 m/s 738 mmHg 94%
02:00 +16°C° 0 mm 1 m/s 738 mmHg 94%
03:00 +16°C° 0 mm 1 m/s 738 mmHg 94%
04:00 +16°C° 0 mm 1 m/s 738 mmHg 94%
05:00 +18°C° 0 mm 2 m/s 738 mmHg 86%
06:00 +20°C° 0 mm 3 m/s 738 mmHg 79%
07:00 +22°C° 0 mm 3 m/s 739 mmHg 71%
08:00 +23°C° 0 mm 4 m/s 738 mmHg 65%
09:00 +26°C° 0 mm 4 m/s 738 mmHg 58%
10:00 +27°C° 0 mm 5 m/s 738 mmHg 52%
11:00 +28°C° 0 mm 5 m/s 738 mmHg 51%
12:00 +28°C° 0 mm 5 m/s 738 mmHg 50%
13:00 +29°C° 0 mm 5 m/s 738 mmHg 49%
14:00 +29°C° 0 mm 5 m/s 737 mmHg 52%
15:00 +28°C° 0 mm 5 m/s 737 mmHg 55%
16:00 +28°C° 0 mm 5 m/s 737 mmHg 59%
17:00 +26°C° 0 mm 4 m/s 737 mmHg 66%
18:00 +25°C° 0 mm 4 m/s 737 mmHg 73%
19:00 +22°C° 0 mm 4 m/s 737 mmHg 80%
20:00 +21°C° 0 mm 3 m/s 737 mmHg 84%
21:00 +20°C° 0 mm 2 m/s 737 mmHg 89%
22:00 +19°C° 0 mm 2 m/s 737 mmHg 93%
23:00 +18°C° 0 mm 2 m/s 737 mmHg 94%

19 Juin, Samedi

Heure Température Précipitation Vent Pression Humidité
00:00 +18°C° 0 mm 2 m/s 737 mmHg 95%
01:00 +18°C° 0 mm 1 m/s 737 mmHg 95%
02:00 +18°C° 0 mm 1 m/s 737 mmHg 95%
03:00 +18°C° 0 mm 1 m/s 737 mmHg 95%
04:00 +18°C° 0 mm 1 m/s 737 mmHg 95%
05:00 +19°C° 0 mm 2 m/s 737 mmHg 88%
06:00 +21°C° 0 mm 3 m/s 737 mmHg 81%
07:00 +24°C° 0 mm 3 m/s 737 mmHg 73%
08:00 +25°C° 0 mm 4 m/s 737 mmHg 67%
09:00 +27°C° 0 mm 4 m/s 737 mmHg 60%
10:00 +28°C° 0 mm 5 m/s 737 mmHg 54%
11:00 +29°C° 0 mm 5 m/s 737 mmHg 52%
12:00 +29°C° 0 mm 5 m/s 736 mmHg 50%
13:00 +30°C° 0 mm 5 m/s 736 mmHg 48%
14:00 +29°C° 0 mm 5 m/s 736 mmHg 52%
15:00 +28°C° 0 mm 5 m/s 736 mmHg 55%
16:00 +28°C° 0 mm 5 m/s 736 mmHg 58%
17:00 +26°C° 0 mm 5 m/s 736 mmHg 66%
18:00 +23°C° 0 mm 4 m/s 736 mmHg 74%
19:00 +22°C° 0 mm 4 m/s 736 mmHg 81%
20:00 +20°C° 0 mm 3 m/s 736 mmHg 86%
21:00 +19°C° 0 mm 2 m/s 736 mmHg 90%
22:00 +19°C° 0 mm 1 m/s 736 mmHg 95%
23:00 +18°C° 0 mm 1 m/s 736 mmHg 95%

20 Juin, Dimanche

Heure Température Précipitation Vent Pression Humidité
00:00 +18°C° 0 mm 1 m/s 735 mmHg 95%
01:00 +16°C° 0 mm 1 m/s 735 mmHg 95%
02:00 +16°C° 0 mm 1 m/s 735 mmHg 95%
03:00 +16°C° 0 mm 1 m/s 735 mmHg 95%
04:00 +16°C° 0 mm 1 m/s 735 mmHg 95%
05:00 +19°C° 0 mm 1 m/s 735 mmHg 88%
06:00 +21°C° 0 mm 1 m/s 735 mmHg 81%
07:00 +23°C° 0 mm 1 m/s 736 mmHg 75%
08:00 +25°C° 0 mm 2 m/s 736 mmHg 69%
09:00 +26°C° 0 mm 2 m/s 735 mmHg 63%
10:00 +28°C° 0 mm 2 m/s 735 mmHg 57%
11:00 +28°C° 0 mm 2 m/s 735 mmHg 57%
12:00 +28°C° 0 mm 2 m/s 735 mmHg 56%
13:00 +29°C° 0 mm 2 m/s 735 mmHg 56%
14:00 +28°C° 0.2 mm 2 m/s 735 mmHg 59%
15:00 +28°C° 0.2 mm 2 m/s 735 mmHg 62%
16:00 +28°C° 0.2 mm 2 m/s 734 mmHg 65%
17:00 +26°C° 0.1 mm 2 m/s 734 mmHg 72%
18:00 +25°C° 0.1 mm 2 m/s 734 mmHg 78%
19:00 +23°C° 0.1 mm 2 m/s 734 mmHg 85%
20:00 +21°C° 0 mm 2 m/s 734 mmHg 88%
21:00 +21°C° 0 mm 1 m/s 734 mmHg 90%
22:00 +20°C° 0 mm 1 m/s 734 mmHg 92%
23:00 +20°C° 0 mm 1 m/s 734 mmHg 92%

21 Juin, Lundi

Heure Température Précipitation Vent Pression Humidité
00:00 +19°C° 0 mm 1 m/s 733 mmHg 93%
01:00 +19°C° 0 mm 1 m/s 733 mmHg 93%
02:00 +19°C° 0 mm 1 m/s 733 mmHg 93%
03:00 +19°C° 0 mm 1 m/s 733 mmHg 93%
04:00 +18°C° 0 mm 1 m/s 733 mmHg 93%
05:00 +20°C° 0 mm 1 m/s 733 mmHg 86%
06:00 +22°C° 0 mm 1 m/s 733 mmHg 80%
07:00 +24°C° 0 mm 1 m/s 734 mmHg 73%
08:00 +26°C° 0 mm 2 m/s 733 mmHg 66%
09:00 +27°C° 0 mm 2 m/s 733 mmHg 58%
10:00 +29°C° 0 mm 3 m/s 733 mmHg 51%
11:00 +29°C° 0 mm 3 m/s 733 mmHg 49%
12:00 +30°C° 0 mm 3 m/s 733 mmHg 47%
13:00 +30°C° 0 mm 3 m/s 732 mmHg 45%
14:00 +30°C° 0 mm 4 m/s 732 mmHg 49%
15:00 +29°C° 0 mm 4 m/s 732 mmHg 53%
16:00 +29°C° 0 mm 4 m/s 732 mmHg 58%
17:00 +27°C° 0 mm 3 m/s 732 mmHg 65%
18:00 +25°C° 0 mm 3 m/s 732 mmHg 73%
19:00 +24°C° 0 mm 2 m/s 732 mmHg 81%
20:00 +23°C° 0 mm 2 m/s 732 mmHg 85%
21:00 +20°C° 0 mm 2 m/s 732 mmHg 89%
22:00 +20°C° 0 mm 1 m/s 732 mmHg 93%
23:00 +20°C° 0 mm 1 m/s 732 mmHg 93%
Voir plus

Nous avons besoin de votre consentement

Meteoprog et ses fournisseurs de services peuvent stocker et accéder à des données personnelles telles que des cookies, des identifiants d'appareils ou d'autres technologies similaires sur votre appareil et traiter ces données pour personnaliser le contenu et les publicités, ainsi que pour fournir des fonctionnalités de médias sociaux et analyser le trafic.

  • Stocker et/ou accéder à des informations sur votre appareil

    Des cookies, des identifiants d'appareils ou d'autres informations peuvent être stockés ou accessibles sur votre appareil aux fins indiquées ci-dessus.

  • Annonces et contenus personnalisés, mesure des annonces et des contenus, connaissance de l'audience et développement de produits

    Les annonces et le contenu peuvent être personnalisés en fonction d'un profil. D'autres données peuvent être ajoutées pour mieux personnaliser les annonces et le contenu. Les performances des publicités et du contenu peuvent être mesurées. Il est possible d'obtenir des informations sur le public qui a vu les publicités et le contenu. Ces données peuvent être utilisées pour développer ou améliorer l'expérience de l'utilisateur, les systèmes et les logiciels.

En cliquant sur "J'accepte", vous autorisez l'utilisation de cookies, des identifiants d'appareils, des balises web ou d'autres technologies similaires. Vos paramètres peuvent être modifiés dans le navigateur de votre appareil.

Dans certains cas, des intérêts légitimes peuvent être invoqués plutôt qu'un consentement. Vous pouvez en savoir plus à ce sujet dans notre Politique de confidentialité et de cookies.